Change the Weather History Date:

Thursday, August 21, 2014

  Actual Average Record
Temperature  
Mean Temperature 76 °F -  
Max Temperature 86 °F 83 °F 101 °F (1983)
Min Temperature 66 °F 63 °F 51 °F (1984)
Cooling Degree Days 11    
Growing Degree Days 26 (Base 50)    
Moisture  
Dew Point 67 °F    
Average Humidity 77    
Maximum Humidity 100    
Minimum Humidity 51    
Precipitation  
Precipitation 0.01 in - - ()
Sea Level Pressure  
Sea Level Pressure 30.03 in    
Wind  
Wind Speed 2 mph (SW)    
Max Wind Speed 10 mph    
Max Gust Speed -    
Visibility 6 miles    
Events Fog , Rain    
Averages and records for this station are not official NWS values.
T = Trace of Precipitation, MM = Missing Value Source: NWS Daily Summary

Daily Weather History Graph

Daily Weather History Graph

Search for Another Location

Airport or City:

Trip Planner

Search our weather history database for the weather conditions in past years. The results will help you decide how hot, cold, wet, or windy it might be!

Date:

Astronomy

Aug. 21, 2014 Rise Set
Actual Time 6:31 AM EDT 7:59 PM EDT
Civil Twilight 6:03 AM EDT 8:27 PM EDT
Nautical Twilight 5:29 AM EDT 9:01 PM EDT
Astronomical Twilight 4:53 AM EDT 9:36 PM EDT
Moon 3:00 AM EDT (8/21) 5:26 PM EDT (8/21)
Length of Visible Light 14h 24m
Length of Day
13h 28m
Waning Crescent, 13% of the Moon is Illuminated
Aug 21
Waning Crescent
Aug 25
New
Sep 2
First Quarter
Sep 8
Full
Sep 15
Last Quarter

Hourly Weather History & Observations

Time (EDT) Temp. Heat Index Dew Point Humidity Pressure Visibility Wind Dir Wind Speed Gust Speed Precip Events Conditions
12:15 AM 68.0 °F - 68.0 °F 100% 30.03 in 0.8 mi Calm Calm - N/A   Overcast
12:35 AM 68.0 °F - 68.0 °F 100% 30.03 in 0.5 mi Calm Calm - N/A Fog Fog
12:55 AM 68.0 °F - 66.2 °F 94% 30.02 in 0.2 mi Calm Calm - N/A Fog Fog
1:15 AM 68.0 °F - 66.2 °F 94% 30.02 in 0.2 mi Calm Calm - N/A Fog Fog
1:35 AM 68.0 °F - 66.2 °F 94% 30.02 in 0.2 mi Calm Calm - N/A Fog Fog
1:55 AM 66.2 °F - 64.4 °F 94% 30.01 in 0.5 mi Calm Calm - N/A Fog Fog
2:15 AM 66.2 °F - 64.4 °F 94% 30.00 in 0.5 mi Calm Calm - N/A Fog Fog
2:35 AM 66.2 °F - 64.4 °F 94% 30.01 in 0.8 mi Calm Calm - N/A   Overcast
2:55 AM 66.2 °F - 66.2 °F 100% 30.01 in 0.5 mi Calm Calm - N/A Fog Fog
3:15 AM 68.0 °F - 66.2 °F 94% 30.01 in 0.2 mi Calm Calm - N/A Fog Fog
3:35 AM 68.0 °F - 68.0 °F 100% 30.01 in 0.2 mi Calm Calm - N/A Fog Fog
3:55 AM 68.0 °F - 68.0 °F 100% 30.00 in 0.5 mi WSW 3.5 mph - N/A Fog Fog
4:15 AM 68.0 °F - 68.0 °F 100% 30.00 in 0.2 mi Calm Calm - N/A Fog Fog
4:35 AM 68.0 °F - 68.0 °F 100% 30.00 in 0.2 mi Calm Calm - N/A Fog Fog
4:55 AM 68.0 °F - 68.0 °F 100% 30.00 in 0.5 mi Calm Calm - N/A Fog Fog
5:15 AM 68.0 °F - 68.0 °F 100% 30.01 in 0.5 mi SE 3.5 mph - N/A Fog Fog
5:35 AM 68.0 °F - 66.2 °F 94% 30.03 in 0.2 mi SE 3.5 mph - N/A Fog Fog
5:55 AM 68.0 °F - 66.2 °F 94% 30.03 in 0.5 mi Calm Calm - N/A Fog Fog
6:15 AM 68.0 °F - 66.2 °F 94% 30.04 in 0.2 mi Calm Calm - N/A Fog Fog
6:35 AM 68.0 °F - 66.2 °F 94% 30.05 in 0.2 mi West 4.6 mph - N/A Fog Fog
6:55 AM 68.0 °F - 68.0 °F 100% 30.05 in 3.0 mi Calm Calm - N/A Rain Light Rain
7:15 AM 68.0 °F - 68.0 °F 100% 30.05 in 3.0 mi Calm Calm - N/A   Overcast
7:35 AM 68.0 °F - 68.0 °F 100% 30.06 in 3.0 mi Calm Calm - N/A   Mostly Cloudy
7:55 AM 69.8 °F - 68.0 °F 94% 30.06 in 3.0 mi Calm Calm - N/A   Overcast
8:15 AM 68.0 °F - 68.0 °F 100% 30.07 in 1.5 mi SE 3.5 mph - N/A   Overcast
8:35 AM 69.8 °F - 68.0 °F 94% 30.08 in 5.0 mi Calm Calm - N/A   Overcast
8:55 AM 69.8 °F - 69.8 °F 100% 30.07 in 7.0 mi Calm Calm - N/A   Scattered Clouds
9:15 AM 71.6 °F - 69.8 °F 94% 30.07 in 7.0 mi Calm Calm - 0.01 in   Scattered Clouds
9:55 AM 73.4 °F - 71.6 °F 94% 30.07 in 10.0 mi SW 3.5 mph - 0.01 in   Clear
10:15 AM 77.0 °F - 71.6 °F 83% 30.07 in 10.0 mi Calm Calm - N/A   Clear
10:35 AM 78.8 °F - 71.6 °F 78% 30.07 in 10.0 mi South 5.8 mph - N/A   Clear
10:55 AM 80.6 °F 83.9 °F 69.8 °F 70% 30.07 in 10.0 mi South 3.5 mph - N/A   Scattered Clouds
11:15 AM 80.6 °F 83.2 °F 68.0 °F 65% 30.06 in 10.0 mi West 5.8 mph - N/A   Mostly Cloudy
11:35 AM 80.6 °F 83.9 °F 69.8 °F 70% 30.06 in 10.0 mi South 3.5 mph - N/A   Scattered Clouds
11:55 AM 82.4 °F 85.4 °F 68.0 °F 62% 30.05 in 10.0 mi NW 3.5 mph - N/A   Scattered Clouds
12:15 PM 82.4 °F 84.6 °F 66.2 °F 58% 30.05 in 10.0 mi WSW 5.8 mph - N/A   Scattered Clouds
12:35 PM 82.4 °F 84.6 °F 66.2 °F 58% 30.05 in 10.0 mi SW 8.1 mph - N/A   Scattered Clouds
1:15 PM 82.4 °F 84.6 °F 66.2 °F 58% 30.05 in 10.0 mi SW 6.9 mph - N/A   Mostly Cloudy
1:35 PM 84.2 °F 87.3 °F 68.0 °F 58% 30.04 in 10.0 mi WSW 9.2 mph - N/A   Scattered Clouds
1:55 PM 86.0 °F 89.4 °F 68.0 °F 55% 30.04 in 10.0 mi SW 6.9 mph - N/A   Mostly Cloudy
2:15 PM 84.2 °F 87.3 °F 68.0 °F 58% 30.03 in 10.0 mi SW 8.1 mph - N/A   Overcast
2:35 PM 84.2 °F 87.3 °F 68.0 °F 58% 30.03 in 10.0 mi SW 4.6 mph - N/A   Overcast
2:55 PM 84.2 °F 87.3 °F 68.0 °F 58% 30.02 in 10.0 mi SW 4.6 mph - N/A   Mostly Cloudy
3:15 PM 84.2 °F 86.6 °F 66.2 °F 55% 30.01 in 10.0 mi SW 4.6 mph - N/A   Mostly Cloudy
3:35 PM 84.2 °F 85.6 °F 64.4 °F 51% 30.01 in 10.0 mi SW 5.8 mph - N/A   Mostly Cloudy
3:55 PM 84.2 °F 85.6 °F 64.4 °F 51% 30.01 in 10.0 mi SW 8.1 mph - N/A   Mostly Cloudy
4:15 PM 82.4 °F 83.9 °F 64.4 °F 54% 30.01 in 10.0 mi SW 4.6 mph - N/A   Mostly Cloudy
4:35 PM 82.4 °F 84.6 °F 66.2 °F 58% 30.01 in 10.0 mi SW 4.6 mph - N/A   Mostly Cloudy
4:55 PM 82.4 °F 85.4 °F 68.0 °F 62% 30.02 in 10.0 mi SW 5.8 mph - N/A   Overcast
5:15 PM 82.4 °F 85.4 °F 68.0 °F 62% 30.02 in 10.0 mi SW 4.6 mph - N/A   Overcast
5:35 PM 80.6 °F 83.2 °F 68.0 °F 65% 30.01 in 10.0 mi WSW 3.5 mph - N/A   Overcast
5:55 PM 80.6 °F 82.7 °F 66.2 °F 61% 30.01 in 10.0 mi West 6.9 mph - N/A   Mostly Cloudy
6:15 PM 80.6 °F 82.3 °F 64.4 °F 58% 30.01 in 10.0 mi West 6.9 mph - N/A   Scattered Clouds
6:35 PM 80.6 °F 82.3 °F 64.4 °F 58% 30.01 in 10.0 mi WNW 6.9 mph - N/A   Scattered Clouds
6:55 PM 80.6 °F 82.3 °F 64.4 °F 58% 30.02 in 10.0 mi West 10.4 mph - N/A   Mostly Cloudy
7:15 PM 78.8 °F - 64.4 °F 61% 30.01 in 10.0 mi West 6.9 mph - N/A   Overcast
7:35 PM 78.8 °F - 64.4 °F 61% 30.02 in 10.0 mi West 8.1 mph - N/A   Overcast
7:55 PM 78.8 °F - 64.4 °F 61% 30.02 in 10.0 mi WSW 6.9 mph - N/A   Overcast
8:15 PM 77.0 °F - 64.4 °F 65% 30.01 in 10.0 mi WSW 6.9 mph - N/A   Overcast
8:35 PM 77.0 °F - 64.4 °F 65% 30.02 in 10.0 mi WSW 4.6 mph - N/A   Overcast
8:55 PM 77.0 °F - 64.4 °F 65% 30.02 in 10.0 mi WSW 4.6 mph - N/A   Overcast
9:15 PM 77.0 °F - 64.4 °F 65% 30.02 in 10.0 mi West 4.6 mph - N/A   Overcast
9:35 PM 77.0 °F - 64.4 °F 65% 30.03 in 10.0 mi West 6.9 mph - N/A   Overcast
9:55 PM 77.0 °F - 64.4 °F 65% 30.03 in 10.0 mi SW 3.5 mph - N/A   Mostly Cloudy
10:15 PM 73.4 °F - 64.4 °F 73% 30.03 in 10.0 mi Calm Calm - N/A   Scattered Clouds
10:35 PM 73.4 °F - 64.4 °F 73% 30.03 in 10.0 mi Calm Calm - N/A   Mostly Cloudy
10:55 PM 73.4 °F - 64.4 °F 73% 30.04 in 10.0 mi WSW 3.5 mph - N/A   Overcast
11:15 PM 73.4 °F - 64.4 °F 73% 30.03 in 10.0 mi Calm Calm - N/A   Overcast
11:35 PM 71.6 °F - 66.2 °F 83% 30.03 in 10.0 mi Calm Calm - N/A   Scattered Clouds